TimeMDT,TemperatureF,Dew PointF,Humidity,Sea Level PressureIn,VisibilityMPH,Wind Direction,Wind SpeedMPH,Gust SpeedMPH,PrecipitationIn,Events,Conditions,WindDirDegrees,DateUTC
12:16 AM,52.5,32.2,46,29.86,10.0,SE,10.4,-,N/A,,Overcast,130,2013-04-07 06:16:00
12:36 AM,52.2,32.9,48,29.85,10.0,SSE,11.5,-,N/A,,Overcast,150,2013-04-07 06:36:00
12:56 AM,52.3,32.5,47,29.85,10.0,South,4.6,-,N/A,,Overcast,180,2013-04-07 06:56:00
1:16 AM,53.1,31.3,43,29.85,10.0,South,12.7,17.3,N/A,,Overcast,170,2013-04-07 07:16:00
1:36 AM,52.9,31.6,44,29.85,10.0,South,6.9,-,N/A,,Overcast,170,2013-04-07 07:36:00
1:56 AM,52.5,31.8,45,29.86,10.0,SW,4.6,-,N/A,,Overcast,220,2013-04-07 07:56:00
2:16 AM,50.9,32.7,50,29.85,10.0,Calm,Calm,-,N/A,,Light Drizzle,0,2013-04-07 08:16:00
2:36 AM,47.5,33.4,58,29.84,10.0,Calm,Calm,-,N/A,,Scattered Clouds,0,2013-04-07 08:36:00
2:56 AM,43.2,33.4,69,29.83,10.0,Calm,Calm,-,N/A,,Scattered Clouds,0,2013-04-07 08:56:00
3:16 AM,43.7,33.6,68,29.83,10.0,WSW,3.5,-,N/A,,Clear,250,2013-04-07 09:16:00
3:36 AM,44.1,32.4,63,29.83,10.0,WNW,6.9,-,N/A,,Clear,300,2013-04-07 09:36:00
3:56 AM,46.0,32.0,58,29.84,10.0,North,4.6,-,N/A,,Clear,360,2013-04-07 09:56:00
4:16 AM,44.8,33.6,65,29.84,10.0,NNE,5.8,-,N/A,,Clear,30,2013-04-07 10:16:00
4:36 AM,43.0,34.9,73,29.84,10.0,NNE,3.5,-,N/A,,Clear,20,2013-04-07 10:36:00
4:56 AM,43.0,35.4,75,29.84,10.0,Calm,Calm,-,N/A,,Clear,0,2013-04-07 10:56:00
5:16 AM,40.1,34.9,82,29.83,10.0,South,4.6,-,N/A,,Clear,170,2013-04-07 11:16:00
5:36 AM,38.5,34.3,85,29.84,10.0,South,3.5,-,N/A,,Clear,190,2013-04-07 11:36:00
5:56 AM,37.8,34.3,87,29.84,10.0,Calm,Calm,-,N/A,,Clear,0,2013-04-07 11:56:00
6:16 AM,38.5,34.5,86,29.84,10.0,NNE,4.6,-,N/A,,Clear,30,2013-04-07 12:16:00
6:36 AM,40.6,36.1,84,29.84,10.0,SW,6.9,-,N/A,,Clear,220,2013-04-07 12:36:00
6:56 AM,41.4,35.2,79,29.84,10.0,SSW,6.9,-,N/A,,Clear,210,2013-04-07 12:56:00
7:16 AM,41.2,35.6,81,29.84,10.0,SSW,3.5,-,N/A,,Clear,200,2013-04-07 13:16:00
7:36 AM,42.8,36.3,78,29.84,10.0,Calm,Calm,-,N/A,,Clear,0,2013-04-07 13:36:00
7:56 AM,46.2,36.3,68,29.83,10.0,SSE,3.5,-,N/A,,Clear,160,2013-04-07 13:56:00
8:16 AM,48.7,34.7,58,29.83,10.0,ENE,4.6,-,N/A,,Clear,70,2013-04-07 14:16:00
8:36 AM,51.3,29.5,43,29.82,10.0,Calm,Calm,-,N/A,,Clear,0,2013-04-07 14:36:00
8:56 AM,52.5,30.4,43,29.80,10.0,South,4.6,-,N/A,,Clear,170,2013-04-07 14:56:00
9:16 AM,52.7,27.0,37,29.80,10.0,Calm,Calm,-,N/A,,Clear,0,2013-04-07 15:16:00
9:36 AM,55.4,24.3,30,29.79,10.0,Calm,Calm,-,N/A,,Clear,0,2013-04-07 15:36:00
9:56 AM,56.7,23.0,27,29.79,10.0,SSE,3.5,-,N/A,,Clear,150,2013-04-07 15:56:00
10:16 AM,57.9,22.8,26,29.79,10.0,ESE,4.6,-,N/A,,Clear,110,2013-04-07 16:16:00
10:36 AM,59.0,21.6,24,29.78,10.0,Calm,Calm,-,N/A,,Clear,0,2013-04-07 16:36:00
10:56 AM,59.7,22.1,24,29.78,10.0,Calm,Calm,-,N/A,,Clear,0,2013-04-07 16:56:00
11:16 AM,59.9,18.5,20,29.78,10.0,WSW,4.6,-,N/A,,Clear,240,2013-04-07 17:16:00
11:36 AM,60.4,19.0,20,29.77,10.0,Calm,Calm,-,N/A,,Clear,0,2013-04-07 17:36:00
11:56 AM,62.1,19.9,20,29.77,10.0,SW,4.6,-,N/A,,Clear,230,2013-04-07 17:56:00
12:16 PM,60.8,16.7,18,29.75,10.0,NW,4.6,-,N/A,,Clear,320,2013-04-07 18:16:00
12:36 PM,61.5,17.6,18,29.75,10.0,North,3.5,-,N/A,,Clear,360,2013-04-07 18:36:00
12:56 PM,62.8,18.9,18,29.73,10.0,East,3.5,-,N/A,,Clear,80,2013-04-07 18:56:00
1:16 PM,63.5,19.2,18,29.73,10.0,NNW,6.9,-,N/A,,Clear,330,2013-04-07 19:16:00
1:36 PM,62.6,18.0,18,29.72,10.0,WNW,5.8,-,N/A,,Mostly Cloudy,300,2013-04-07 19:36:00
1:56 PM,61.7,21.2,21,29.72,10.0,West,11.5,18.4,N/A,,Overcast,270,2013-04-07 19:56:00
2:16 PM,63.7,21.7,20,29.72,10.0,North,8.1,-,N/A,,Scattered Clouds,350,2013-04-07 20:16:00
2:36 PM,64.4,23.0,21,29.72,10.0,WNW,11.5,21.9,N/A,,Mostly Cloudy,300,2013-04-07 20:36:00
2:56 PM,64.8,24.1,21,29.73,10.0,WSW,19.6,29.9,N/A,,Scattered Clouds,250,2013-04-07 20:56:00
3:16 PM,61.2,23.9,24,29.72,10.0,West,18.4,32.2,N/A,,Clear,270,2013-04-07 21:16:00
3:36 PM,62.6,25.5,24,29.71,10.0,West,25.3,33.4,N/A,,Clear,260,2013-04-07 21:36:00
3:56 PM,63.3,24.3,23,29.71,10.0,West,23.0,29.9,N/A,,Clear,280,2013-04-07 21:56:00
4:16 PM,62.8,25.0,24,29.70,10.0,WNW,20.7,26.5,N/A,,Clear,290,2013-04-07 22:16:00
4:36 PM,62.1,25.2,25,29.71,10.0,West,17.3,24.2,N/A,,Clear,260,2013-04-07 22:36:00
4:56 PM,60.1,24.3,25,29.71,10.0,West,11.5,19.6,N/A,,Clear,270,2013-04-07 22:56:00
5:16 PM,61.3,23.7,24,29.71,10.0,West,11.5,20.7,N/A,,Clear,280,2013-04-07 23:16:00
5:36 PM,62.8,24.3,23,29.71,10.0,West,21.9,29.9,N/A,,Clear,270,2013-04-07 23:36:00
5:56 PM,60.3,25.5,27,29.70,10.0,NW,9.2,20.7,N/A,,Clear,310,2013-04-07 23:56:00
6:16 PM,60.6,23.7,24,29.70,10.0,NW,8.1,16.1,N/A,,Clear,320,2013-04-08 00:16:00
6:36 PM,58.8,24.6,27,29.70,10.0,NNW,9.2,18.4,N/A,,Clear,330,2013-04-08 00:36:00
6:56 PM,58.3,25.2,28,29.71,10.0,NW,8.1,-,N/A,,Scattered Clouds,310,2013-04-08 00:56:00
7:16 PM,56.7,26.2,31,29.71,10.0,West,11.5,-,N/A,,Scattered Clouds,260,2013-04-08 01:16:00
7:36 PM,56.7,24.8,29,29.71,10.0,West,10.4,16.1,N/A,,Clear,260,2013-04-08 01:36:00
7:56 PM,56.3,25.7,31,29.71,10.0,West,35.7,41.4,N/A,,Clear,280,2013-04-08 01:56:00
8:16 PM,56.1,23.9,29,29.73,10.0,NW,12.7,21.9,N/A,,Scattered Clouds,310,2013-04-08 02:16:00
8:36 PM,54.1,26.6,35,29.72,10.0,SW,16.1,24.2,N/A,,Scattered Clouds,220,2013-04-08 02:36:00
8:56 PM,53.6,25.0,33,29.71,10.0,West,10.4,17.3,N/A,,Clear,260,2013-04-08 02:56:00
9:16 PM,53.4,25.5,34,29.71,10.0,West,11.5,16.1,N/A,,Clear,260,2013-04-08 03:16:00
9:36 PM,53.6,25.3,34,29.71,10.0,South,5.8,-,N/A,,Clear,170,2013-04-08 03:36:00
9:56 PM,49.5,27.1,42,29.71,10.0,SSE,3.5,-,N/A,,Clear,160,2013-04-08 03:56:00
10:16 PM,49.1,28.4,45,29.71,10.0,SE,5.8,-,N/A,,Clear,140,2013-04-08 04:16:00
10:36 PM,47.7,29.7,50,29.71,10.0,SW,3.5,-,N/A,,Clear,220,2013-04-08 04:36:00
10:56 PM,48.9,29.3,47,29.70,10.0,SE,8.1,-,N/A,,Clear,130,2013-04-08 04:56:00
11:16 PM,47.5,29.5,50,29.69,10.0,East,9.2,-,N/A,,Clear,80,2013-04-08 05:16:00
11:36 PM,50.2,29.3,45,29.72,10.0,WSW,3.5,-,N/A,,Clear,250,2013-04-08 05:36:00
11:56 PM,49.3,30.4,48,29.71,10.0,ENE,4.6,-,N/A,,Mostly Cloudy,60,2013-04-08 05:56:00